Zurück zum Katalog

STARLINK-37249

AktivKommunikationSSO
NORAD 68625·PAYLOAD·🇺🇸 United States

Gestartet Apr 5, 2026 von Vandenberg Space Force Base

Loading…

Nächste Überflüge (nächste 24 Stunden)

TLE

AktuellSource: CelesTrak SupGP

Epoche: Sep 15, 2026, 03:46 UTC

1 68625C 26073Z   26258.15743056 -.00047816  00000+0 -14841-2 0  2584
2 68625  97.2856  96.2897 0001764  93.7410 295.8778 15.33467562    18

Verfolge STARLINK-37249 in Echtzeit mit AllMySat

Download on the App Store